This demonstration page uses our WeatherBlox Daily Observations layout. Learn more.

Left ArrowRight Arrow

34.02893, -84.19858

Hourly Observations for November 17, 2022

Temp ( °F °C ) Dew Point ( °F °C ) Humidity (%) Winds ( mph kmh ) Pressure ( in mb ) Visibility ( mi km ) Precip ( " mm )
12:53 am 00:53 Clear 35 1.7 27 -2.8 72 72 W 5 7 30.27 1025 10 16 0.00 0.00
1:53 am 01:53 Clear 34 1.1 26 -3.3 72 72 WNW 5 7 30.27 1025 10 16 0.00 0.00
2:53 am 02:53 Clear 34 1.1 25 -3.9 69 69 WNW 5 7 30.27 1025 10 16 0.00 0.00
3:53 am 03:53 Clear 33 0.6 25 -3.9 72 72 W 3 6 30.27 1025 10 16 0.00 0.00
4:53 am 04:53 Clear 31 -0.6 24 -4.4 75 75 WSW 3 6 30.28 1025 10 16 0.00 0.00
5:53 am 05:53 Clear 32 0 24 -4.4 72 72 WNW 6 9 30.29 1026 10 16 0.00 0.00
6:53 am 06:53 Clear 32 0 24 -4.4 72 72 VRB 6 9 30.29 1026 10 16 0.00 0.00
7:53 am 07:53 Sunny 32 0 24 -4.4 72 72 W 5 7 30.30 1026 10 16 0.00 0.00
8:53 am 08:53 Sunny 35 1.7 22 -5.6 58 58 NW 15 24 30.30 1026 10 16 0.00 0.00
9:53 am 09:53 Sunny 38 3.3 20 -6.7 48 48 NW 10 17 30.31 1027 10 16 0.00 0.00
10:53 am 10:53 Sunny 39 3.9 18 -7.8 42 42 WNW 12 19 30.31 1027 10 16 0.00 0.00
11:53 am 11:53 Sunny 43 6.1 19 -7.2 38 38 N 9 15 30.30 1026 10 16 0.00 0.00
12:53 pm 12:53 Sunny 43 6.1 19 -7.2 38 38 W 16 26 30.27 1025 10 16 0.00 0.00
1:53 pm 13:53 Sunny 44 6.7 19 -7.2 36 36 NW 8 13 30.26 1025 10 16 0.00 0.00
2:53 pm 14:53 Sunny 45 7.2 18 -7.8 33 33 WNW 12 19 30.25 1024 10 16 0.00 0.00
3:53 pm 15:53 Sunny 45 7.2 18 -7.8 33 33 undefined N/A 30.26 1025 10 16 0.00 0.00
4:53 pm 16:53 Sunny 43 6.1 17 -8.3 35 35 NW 7 11 30.27 1025 10 16 0.00 0.00
5:53 pm 17:53 Clear 40 4.4 18 -7.8 41 41 undefined N/A 30.27 1025 10 16 0.00 0.00
6:53 pm 18:53 Clear 39 3.9 19 -7.2 44 44 undefined N/A 30.30 1026 10 16 0.00 0.00
7:53 pm 19:53 Clear 37 2.8 20 -6.7 50 50 undefined N/A 30.31 1027 10 16 0.00 0.00
8:53 pm 20:53 Clear 34 1.1 20 -6.7 56 56 undefined N/A 30.31 1026 10 16 0.00 0.00
9:53 pm 21:53 Clear 33 0.6 20 -6.7 58 58 undefined N/A 30.32 1027 10 16 0.00 0.00
10:53 pm 22:53 Clear 34 1.1 21 -6.1 59 59 NW 5 7 30.32 1027 10 16 0.00 0.00
11:53 pm 23:53 Clear 33 0.6 19 -7.2 56 56 NNW 5 7 30.31 1026 10 16 0.00 0.00

Powered by AerisWeather